Location: Unspecified
(44.3770°N, 0.0000°E)
Time: 16:47:20
(UTC+00:00)

CANX 3B (BRITE-ASRA) - Visible Passes

Search period start: 04 April 2026 00:00
Search period end: 14 April 2026 00:00
Orbit: 762 x 778 km, 98.4° (Epoch: 29 March)

Date Brightness Start Highest point End Pass type
(mag) Time Alt. Az. Time Alt. Az. Time Alt. Az.
4 Apr ? 04:09:44 10° SE 04:14:22 37° ENE 04:19:00 10° N visible
4 Apr ? 19:36:58 10° NNW 19:39:36 14° WNW 19:42:14 10° W visible
5 Apr ? 03:35:49 10° ESE 03:39:20 19° ENE 03:42:51 10° NNE visible
5 Apr ? 19:00:25 10° N 19:04:39 27° WNW 19:08:53 10° WSW visible
6 Apr ? 04:37:35 10° SSE 04:42:36 65° ENE 04:47:38 10° N visible
7 Apr ? 04:02:57 10° SE 04:07:25 32° ENE 04:11:54 10° N visible
7 Apr ? 19:29:39 10° NNW 19:32:42 16° WNW 19:35:46 10° W visible
8 Apr ? 03:29:16 10° E 03:32:26 17° ENE 03:35:36 10° NNE visible
9 Apr ? 04:30:41 10° SSE 04:35:38 57° ENE 04:40:37 10° N visible
10 Apr ? 03:56:13 10° ESE 04:00:29 28° ENE 04:04:47 10° N visible
10 Apr ? 19:22:22 10° NNW 19:25:48 19° WNW 19:29:14 10° WSW visible
11 Apr ? 03:22:47 10° E 03:25:32 15° ENE 03:28:18 10° NNE visible
12 Apr ? 04:23:48 10° SE 04:28:40 49° ENE 04:33:33 10° N visible
12 Apr ? 19:52:36 10° NW 19:53:45 11° NW 19:54:54 10° WNW visible
13 Apr ? 03:49:29 10° ESE 03:53:33 25° ENE 03:57:38 10° N visible
13 Apr ? 19:15:09 10° NNW 19:18:53 21° WNW 19:22:37 10° WSW visible
